Starlink 33660

operational
NORAD ID: 63278 Int'l Des: 2025-053 Owner: SPXS Country: US Constellation: starlink
LEOCIRCULAR

关于 Starlink 33660

正在加载描述...

实时位置

正在加载3D地球...

即将过境

高度历史

Altitude vs Time

uPlot chart will show altitude changes over time

两行轨道根数

1 63278U 25053P 25305.87983901 .00023471 00000-0 85987-3 0 9998
2 63278 43.0023 243.8413 0002046 263.0549 97.0070 15.27573757 36647
Epoch: Nov 1, 2025 • Age: 42 hours

当前状态

高度 483.7 km
速度 7.63 km/s
星下点 -8.66°S, 50.06°W
发射日期 Mar 15, 2025
运行时间 0.6 years
类型 internet

技术详情

分类 Payload
质量 575.00 kg
干质量 530.00 kg
总质量 575.00 kg
长度 0.30 m
直径 4.10 m
跨度 29.00 m
形状 Box + pan
制造商 SPXS
平台类型 Starlink V2MO
阶段状态 In Orbit
所有者/国家 SPXS/US

大型星座

Loading constellations...